Regional Weather Roundup
Issued by NWS Austin/San Antonio, TX

Home | Current Version | Previous Version | Text Only | Print | Product List | Glossary On
Versions: 1 2 3 4 5 6 7 8 9 10 11 12 13 14 15 16 17 18 19 20 21 22 23 24 25 26 27 28 29 30 31 32 33 34 35 36 37 38 39 40 41 42 43 44 45 46 47 48 49 50
000
ASUS44 KEWX 110602
RWREWX
SOUTH TEXAS REGIONAL WEATHER ROUNDUP
NATIONAL WEATHER SERVICE AUSTIN/SAN ANTONIO TX
1200 AM CST WED DEC 11 2019

NOTE: "FAIR" INDICATED FEW OR NO CLOUDS BELOW 12,000 FEET WITH NO
SIGNIFICANT WEATHER AND/OR OBSTRUCTIONS TO VISIBILITY.

* - THESE STATIONS ARE NOT NWS OR FAA STATIONS...AND ARE NOT SUBJECT
    TO NWS AND FAA QUALITY CONTROL.

TXZ171-172-183>190-110700-
TEXAS HILL COUNTRY AND EDWARDS PLATEAU

CITY           SKY/WX    TMP DP  RH WIND       PRES   REMARKS
JUNCTION       CLOUDY    42  37  82 SE5       30.43R WCI  39
6HR MIN TEMP:  42; 6HR MAX TEMP:  44;

*LLANO         CLEAR     34  32  93 CALM      30.48R
BURNET         CLEAR     34  32  92 N3        30.45R
6HR MIN TEMP:  34; 6HR MAX TEMP:  41;

*HORSESHOE BAY CLEAR     34  34 100 CALM      30.45R
*LAGO VISTA    CLEAR     35  35  99 N7        30.43S WCI  29
6HR MIN TEMP:  35; 6HR MAX TEMP:  40;

*KERRVILLE     CLOUDY    41  38  87 CALM      30.41S
6HR MIN TEMP:  41; 6HR MAX TEMP:  42;

*FREDERICKSBRG CLOUDY    39  36  89 NE3       30.41S
*ROCKSPRINGS   CLOUDY    36  36 100 NE5       30.44S WCI  32
*BOERNE        CLEAR     37  37 100 CALM      30.42S
*CASTROVILLE   CLOUDY    44  38  79 NE3       30.45R
HONDO          CLEAR     38  36  92 NW3       30.43S
6HR MIN TEMP:  36; 6HR MAX TEMP:  44;

*UVALDE        CLEAR     37  37  99 N3        30.44S
6HR MIN TEMP:  36; 6HR MAX TEMP:  47; 6HR PCP:  0.01;

DEL RIO        CLOUDY    51  42  71 SE3       30.41R
6HR MIN TEMP:  51; 6HR MAX TEMP:  53;

*LAUGHLIN AFB  NOT AVBL
*SPOFFORD      NOT AVBL
*EAGLE PASS    CLOUDY    48  41  76 E5        30.43S WCI  46
CARRIZO SPRGS  CLOUDY    45  37  76 NE3       30.43S
$$

TXZ173-191>194-202-209-217>225-228-110700-
CENTRAL AND SOUTH CENTRAL TEXAS

CITY           SKY/WX    TMP DP  RH WIND       PRES   REMARKS
GEORGETOWN     CLEAR     34  32  92 CALM      30.46R
6HR MIN TEMP:  34; 6HR MAX TEMP:  42;

*TAYLOR        CLEAR     34  33  96 N3        30.45S
6HR MIN TEMP:  34; 6HR MAX TEMP:  43;

AUSTIN/BERGSTM CLEAR     37  34  89 N8        30.44S WCI  31
6HR MIN TEMP:  36; 6HR MAX TEMP:  46;

AUSTIN/MABRY   CLEAR     40  35  83 N3        30.45R
6HR MIN TEMP:  38; 6HR MAX TEMP:  45;

*PFLUGERVILLE  CLEAR     37  36  93 N7        30.45S WCI  32
SAN MARCOS     CLEAR     38  37  97 N5        30.45S WCI  34
6HR MIN TEMP:  38; 6HR MAX TEMP:  45;

NEW BRAUNFELS  MOCLDY    41  38  89 N6        30.43R WCI  37
6HR MIN TEMP:  41; 6HR MAX TEMP:  47;

*RANDOLPH AFB  NOT AVBL
*SEGUIN        NOT AVBL
SAN ANTONIO    CLOUDY    45  38  76 NE8       30.43R WCI  41
6HR MIN TEMP:  45; 6HR MAX TEMP:  47;

STINSON FIELD  CLOUDY    45  40  82 NE6       30.42R WCI  42
6HR MIN TEMP:  45; 6HR MAX TEMP:  47;

*KELLY FIELD   NOT AVBL
*PLEASANTON    CLOUDY    46  40  79 NE6       30.44S WCI  42
6HR MIN TEMP:  44; 6HR MAX TEMP:  46;

*KENEDY        CLOUDY    46  40  82 NE9       30.44S WCI  41
6HR MIN TEMP:  46; 6HR MAX TEMP:  49;

*LA GRANGE     CLOUDY    44  42  92 N7        30.41S WCI  40
6HR MIN TEMP:  44; 6HR MAX TEMP:  45;

*GIDDINGS      CLOUDY    43  40  89 CALM      30.43F
6HR MIN TEMP:  43; 6HR MAX TEMP:  44;

*GONZALES      CLOUDY    44  40  86 N8        30.43S WCI  39
6HR MIN TEMP:  44; 6HR MAX TEMP:  47;

$$

TXZ163>164-176>182-195>201-210>213-226-227-235-110700-
SOUTHEAST TEXAS

CITY           SKY/WX    TMP DP  RH WIND       PRES   REMARKS
COLLEGE STN    CLOUDY    46  41  82 N9        30.43S WCI  41
6HR MIN TEMP:  44; 6HR MAX TEMP:  46;

*BRYAN         CLOUDY    45  41  87 MISG      30.45S
6HR MIN TEMP:  44; 6HR MAX TEMP:  45;

*CALDWELL      CLOUDY    43  40  91 NE6       30.44S WCI  39
*CROCKETT      NOT AVBL
*BRENHAM       CLOUDY    46  42  87 N9        30.43S WCI  41
6HR MIN TEMP:  44; 6HR MAX TEMP:  47;

HUNTSVILLE     CLOUDY    44  40  85 VRB5      30.42R WCI  42
6HR MIN TEMP:  44; 6HR MAX TEMP:  46;

CONROE         CLOUDY    44  40  85 VRB7      30.42R WCI  40
6HR MIN TEMP:  44; 6HR MAX TEMP:  47;

HOUSTON BUSH   CLOUDY    46  41  82 N14       30.40R WCI  40
6HR MIN TEMP:  46; 6HR MAX TEMP:  50;

HOUSTON HOBBY  CLOUDY    48  41  76 NE14G22   30.38R WCI  42
6HR MIN TEMP:  48; 6HR MAX TEMP:  51;

*HOUSTON SW AP CLOUDY    47  43  87 NE13G22   30.39S WCI  41
6HR MIN TEMP:  47; 6HR MAX TEMP:  49;

PEARLAND       CLOUDY    49  41  74 NE14G22   30.39S WCI  44
6HR MIN TEMP:  49; 6HR MAX TEMP:  52;

HOUSTON HOOKS  CLOUDY    46  40  79 N10       30.41R WCI  41
6HR MIN TEMP:  46; 6HR MAX TEMP:  48;

ELLINGTON FLD  CLOUDY    46  43  87 N17       30.37R WCI  39
SUGAR LAND     CLOUDY    48  43  82 NE16G22   30.38R WCI  42
6HR MIN TEMP:  48; 6HR MAX TEMP:  50;

*HOUSTON EXEC  CLOUDY    46  45  93 NE12      30.41S WCI  41
*CLEVELAND MUN CLOUDY    44  40  87 N6        30.42R FOG     WCI  41
6HR MIN TEMP:  44; 6HR MAX TEMP:  47;

*WHARTON       CLOUDY    46  42  88 N10       30.39S WCI  41
6HR MIN TEMP:  46; 6HR MAX TEMP:  49;

*COLUMBUS      CLOUDY    43  38  82 N8        30.42S WCI  38
6HR MIN TEMP:  41; 6HR MAX TEMP:  45;

*EAGLE LAKE    CLOUDY    47  45  92 N12       30.41R WCI  41
6HR MIN TEMP:  46; 6HR MAX TEMP:  50;

$$

TXZ214>216-236>238-110700-
THE UPPER TEXAS COAST

CITY           SKY/WX    TMP DP  RH WIND       PRES   REMARKS
*ORANGE        CLOUDY    47  42  85 N10G17    30.39R WCI  42
6HR MIN TEMP:  47; 6HR MAX TEMP:  49; 6HR PCP:  0.03;

PORT ARTHUR    CLOUDY    47  43  86 N16G24    30.37R WCI  40
6HR MIN TEMP:  47; 6HR MAX TEMP:  49; 6HR PCP: TRACE;

GALVESTON      CLOUDY    50  45  83 N28G33    30.37R WCI  42
6HR MIN TEMP:  50; 6HR MAX TEMP:  54;

ANGLETON       CLOUDY    49  43  80 NE14      30.37R WCI  44
6HR MIN TEMP:  49; 6HR MAX TEMP:  51;

*BAY CITY      CLOUDY    51  47  84 N9        30.36S
PALACIOS       CLOUDY    48  44  86 N16       30.36S WCI  42
6HR MIN TEMP:  48; 6HR MAX TEMP:  52;

$$

TXZ229>234-239>247-110700-
TEXAS COASTAL BEND AND RIO GRANDE PLAINS

CITY           SKY/WX    TMP DP  RH WIND       PRES   REMARKS
VICTORIA       CLOUDY    47  42  83 N9        30.40R WCI  43
6HR MIN TEMP:  47; 6HR MAX TEMP:  50;

*BEEVILLE      NOT AVBL
ROCKPORT       CLOUDY    50  43  77 N17       30.38R WCI  44
6HR MIN TEMP:  50; 6HR MAX TEMP:  54;

*PORT ARANSAS  CLOUDY    51  46  82 N16G23    30.39R
6HR MIN TEMP:  51; 6HR MAX TEMP:  53;

*PORT LAVACA   CLOUDY    48  45  89 N15G24    30.38S WCI  42
6HR MIN TEMP:  48; 6HR MAX TEMP:  52;

*INGLESIDE     CLOUDY    51  47  86 NE16G23   30.38R
CORPUS CHRISTI CLOUDY    50  45  83 N16G22    30.39R WCI  44
6HR MIN TEMP:  49; 6HR MAX TEMP:  52;

CORPUS NAS     CLOUDY    51  47  86 N17G28    30.38R
6HR MIN TEMP:  51; 6HR MAX TEMP:  53;

*ROBSTOWN      CLOUDY    49  44  83 N12G20    30.40S WCI  44
6HR MIN TEMP:  49; 6HR MAX TEMP:  51;

ALICE          CLOUDY    51  44  77 N12       30.40R
6HR MIN TEMP:  50; 6HR MAX TEMP:  52;

KINGSVILLE NAS CLOUDY    51  45  79 N8        30.40S
6HR MIN TEMP:  50; 6HR MAX TEMP:  53;

COTULLA        CLOUDY    48  42  80 NE8       30.43F WCI  44
6HR MIN TEMP:  47; 6HR MAX TEMP:  51;

LAREDO         CLOUDY    50  42  74 NE12      30.41S WCI  46
6HR MIN TEMP:  50; 6HR MAX TEMP:  54;

$$

TXZ248>255-110700-
DEEP SOUTH TEXAS

CITY           SKY/WX    TMP DP  RH WIND       PRES   REMARKS
BROWNSVILLE    CLOUDY    52  46  80 NW15G24   30.34R
6HR MIN TEMP:  52; 6HR MAX TEMP:  56;

PORT ISA


USA.gov is the U.S. government's official web portal to all federal, state and local government web resources and services.